Location: Neuvy Saint Sepulchre
(46.5953°N, 1.8122°E)
Time: 16:29:43
(UTC+02:00)

ISS - Pass Details

Date: 08 May 2026
Orbit: 414 x 424 km, 51.6° (Epoch: 21 May)

Event Time Altitude Azimuth Distance (km) Brightness Sun altitude
Rises 22:25:54 0° 217° (SW) 2,336 0.0 -11.5°
Reaches altitude 10° 22:28:06 10° 207° (SSW) 1,479 -1.1 -11.7°
Maximum altitude 22:31:06 32° 142° (SE) 736 -3.1 -12.1°
Drops below altitude 10° 22:34:07 10° 77° (ENE) 1,489 -1.3 -12.5°
Enters shadow 22:34:59 - 73° (ENE) 1,816 -0.8 -12.6°
